Time,TemperatureF,DewpointF,PressureIn,WindDirection,WindDirectionDegrees,WindSpeedMPH,WindSpeedGustMPH,Humidity,HourlyPrecipIn,Conditions,Clouds,dailyrainin,SolarRadiationWatts/m^2,SoftwareType,DateUTC
2013-06-05 00:11:00,50.2,44.6,30.05,WSW,255,0.0,0.0,81,0.00,,CLR,0.00,0.00,VWS V14.01,2013-06-05 04:11:00,
2013-06-05 00:21:00,49.9,44.3,30.06,WSW,255,0.0,0.0,81,0.00,,CLR,0.00,0.00,VWS V14.01,2013-06-05 04:21:00,
2013-06-05 00:31:00,49.6,44.0,30.06,WSW,255,0.0,0.0,81,0.00,,CLR,0.00,0.00,VWS V14.01,2013-06-05 04:31:00,
2013-06-05 00:41:00,50.2,44.9,30.06,WSW,255,0.0,0.0,82,0.00,,CLR,0.00,0.00,VWS V14.01,2013-06-05 04:41:00,
2013-06-05 00:51:00,50.5,45.2,30.06,WSW,255,0.0,0.0,82,0.00,,CLR,0.00,0.00,VWS V14.01,2013-06-05 04:51:00,
2013-06-05 01:01:00,51.0,45.1,30.07,WSW,255,0.0,0.0,80,0.00,,CLR,0.00,0.00,VWS V14.01,2013-06-05 05:01:00,
2013-06-05 01:11:00,51.1,45.5,30.07,WSW,255,0.0,0.0,81,0.00,,CLR,0.00,0.00,VWS V14.01,2013-06-05 05:11:00,
2013-06-05 01:21:00,51.1,45.8,30.07,WSW,255,0.0,0.0,82,0.00,,CLR,0.00,0.00,VWS V14.01,2013-06-05 05:21:00,
2013-06-05 01:31:00,51.0,46.0,30.06,WSW,255,0.0,1.0,83,0.00,,CLR,0.00,0.00,VWS V14.01,2013-06-05 05:31:00,
2013-06-05 01:41:00,51.3,45.7,30.06,WSW,255,2.0,4.0,81,0.00,,CLR,0.00,0.00,VWS V14.01,2013-06-05 05:41:00,
2013-06-05 01:51:00,51.0,46.0,30.07,WSW,255,2.0,4.0,83,0.00,,CLR,0.00,0.00,VWS V14.01,2013-06-05 05:51:00,
2013-06-05 02:01:00,50.8,45.8,30.07,WSW,255,3.0,3.0,83,0.00,,CLR,0.00,0.00,VWS V14.01,2013-06-05 06:01:00,
2013-06-05 02:11:00,50.5,46.5,30.07,WSW,255,0.0,3.0,86,0.00,,CLR,0.00,0.00,VWS V14.01,2013-06-05 06:11:00,
2013-06-05 02:21:00,49.9,46.2,30.07,WSW,255,4.0,6.0,87,0.00,,CLR,0.00,0.00,VWS V14.01,2013-06-05 06:21:00,
2013-06-05 02:31:00,50.2,47.1,30.07,West,277,3.0,7.0,89,0.00,,CLR,0.00,0.00,VWS V14.01,2013-06-05 06:31:00,
2013-06-05 02:41:00,50.4,47.3,30.07,West,277,3.0,4.0,89,0.00,,CLR,0.00,0.00,VWS V14.01,2013-06-05 06:41:00,
2013-06-05 02:51:00,49.9,46.8,30.07,West,277,0.0,4.0,89,0.00,,CLR,0.00,0.00,VWS V14.01,2013-06-05 06:51:00,
2013-06-05 03:01:00,49.8,47.0,30.07,West,277,3.0,4.0,90,0.00,,CLR,0.00,0.00,VWS V14.01,2013-06-05 07:01:00,
2013-06-05 03:11:00,49.6,46.8,30.07,West,277,1.0,4.0,90,0.00,,CLR,0.00,0.00,VWS V14.01,2013-06-05 07:11:00,
2013-06-05 03:21:00,49.5,46.7,30.07,West,277,2.0,2.0,90,0.00,,CLR,0.00,0.00,VWS V14.01,2013-06-05 07:21:00,
2013-06-05 03:31:00,49.2,46.1,30.07,West,277,0.0,4.0,89,0.00,,CLR,0.00,0.00,VWS V14.01,2013-06-05 07:31:00,
2013-06-05 03:41:00,48.8,45.7,30.07,West,277,0.0,2.0,89,0.00,,CLR,0.00,0.00,VWS V14.01,2013-06-05 07:41:00,
2013-06-05 03:51:00,48.6,45.5,30.08,West,277,0.0,0.0,89,0.00,,CLR,0.00,0.00,VWS V14.01,2013-06-05 07:51:00,
2013-06-05 04:01:00,48.2,44.8,30.08,West,277,2.0,3.0,88,0.00,,CLR,0.00,0.00,VWS V14.01,2013-06-05 08:01:00,
2013-06-05 04:11:00,47.9,44.8,30.08,West,277,0.0,3.0,89,0.00,,CLR,0.00,0.00,VWS V14.01,2013-06-05 08:11:00,
2013-06-05 04:21:00,48.0,44.6,30.08,West,277,0.0,0.0,88,0.00,,CLR,0.00,0.00,VWS V14.01,2013-06-05 08:21:00,
2013-06-05 04:31:00,48.0,44.3,30.09,West,277,0.0,0.0,87,0.00,,CLR,0.00,0.00,VWS V14.01,2013-06-05 08:31:00,
2013-06-05 04:41:00,47.9,44.5,30.09,West,277,0.0,0.0,88,0.00,,CLR,0.00,0.00,VWS V14.01,2013-06-05 08:41:00,
2013-06-05 05:01:00,47.3,44.2,30.10,WSW,243,0.0,1.0,89,0.00,,CLR,0.00,0.00,VWS V14.01,2013-06-05 09:01:00,
2013-06-05 05:11:00,47.1,44.0,30.10,WSW,243,0.0,2.0,89,0.00,,CLR,0.00,5.00,VWS V14.01,2013-06-05 09:11:00,
2013-06-05 05:21:00,47.0,44.2,30.10,WSW,243,0.0,0.0,90,0.00,,CLR,0.00,7.00,VWS V14.01,2013-06-05 09:21:00,
2013-06-05 05:31:00,47.1,44.6,30.11,WSW,243,0.0,1.0,91,0.00,,CLR,0.00,11.00,VWS V14.01,2013-06-05 09:31:00,
2013-06-05 05:41:00,47.3,45.1,30.11,WSW,243,2.0,3.0,92,0.00,,CLR,0.00,12.00,VWS V14.01,2013-06-05 09:41:00,
2013-06-05 05:51:00,47.3,45.4,30.11,West,259,2.0,4.0,93,0.00,,CLR,0.00,16.00,VWS V14.01,2013-06-05 09:51:00,
2013-06-05 06:01:00,47.4,45.8,30.11,WNW,284,4.0,4.0,94,0.00,,CLR,0.00,18.00,VWS V14.01,2013-06-05 10:01:00,
2013-06-05 06:11:00,48.3,46.4,30.11,WNW,289,5.0,5.0,93,0.00,,CLR,0.00,21.00,VWS V14.01,2013-06-05 10:11:00,
2013-06-05 06:21:00,49.9,45.3,30.12,WNW,291,5.0,6.0,84,0.00,,CLR,0.00,25.00,VWS V14.01,2013-06-05 10:21:00,
2013-06-05 06:31:00,51.1,44.2,30.12,NW,307,5.0,7.0,77,0.00,,CLR,0.00,26.00,VWS V14.01,2013-06-05 10:31:00,
2013-06-05 06:41:00,51.9,44.2,30.12,WNW,293,7.0,9.0,75,0.00,,CLR,0.00,28.00,VWS V14.01,2013-06-05 10:41:00,
2013-06-05 06:51:00,52.3,44.3,30.12,WNW,291,7.0,9.0,74,0.00,,CLR,0.00,39.00,VWS V14.01,2013-06-05 10:51:00,
2013-06-05 07:11:00,53.5,43.6,30.13,WNW,288,8.0,9.0,69,0.00,,CLR,0.00,33.00,VWS V14.01,2013-06-05 11:11:00,
2013-06-05 07:31:00,54.4,42.5,30.13,WNW,300,6.0,9.0,64,0.00,,CLR,0.00,35.00,VWS V14.01,2013-06-05 11:31:00,
2013-06-05 07:41:00,54.8,42.0,30.13,West,277,6.0,10.0,62,0.00,,CLR,0.00,111.00,VWS V14.01,2013-06-05 11:41:00,
2013-06-05 07:51:00,55.1,41.5,30.13,NW,316,6.0,9.0,60,0.00,,CLR,0.00,46.00,VWS V14.01,2013-06-05 11:51:00,
2013-06-05 08:01:00,55.7,41.6,30.13,WNW,297,3.0,8.0,59,0.00,,CLR,0.00,83.00,VWS V14.01,2013-06-05 12:01:00,
2013-06-05 08:21:00,56.5,39.6,30.14,WSW,258,6.0,12.0,53,0.00,,CLR,0.00,42.00,VWS V14.01,2013-06-05 12:21:00,
2013-06-05 08:31:00,56.7,40.3,30.15,WNW,288,0.0,13.0,54,0.00,,CLR,0.00,86.00,VWS V14.01,2013-06-05 12:31:00,
2013-06-05 08:41:00,57.2,39.8,30.15,NNW,328,3.0,13.0,52,0.00,,CLR,0.00,79.00,VWS V14.01,2013-06-05 12:41:00,
2013-06-05 08:51:00,57.3,38.3,30.15,WNW,300,7.0,13.0,49,0.00,,CLR,0.00,81.00,VWS V14.01,2013-06-05 12:51:00,
2013-06-05 09:01:00,58.1,38.5,30.15,NW,309,5.0,12.0,48,0.00,,CLR,0.00,49.00,VWS V14.01,2013-06-05 13:01:00,
2013-06-05 09:11:00,58.1,38.0,30.15,North,357,2.0,12.0,47,0.00,,CLR,0.00,51.00,VWS V14.01,2013-06-05 13:11:00,
2013-06-05 09:21:00,58.6,39.5,30.15,NW,304,4.0,12.0,49,0.00,,CLR,0.00,58.00,VWS V14.01,2013-06-05 13:21:00,
2013-06-05 09:31:00,59.2,39.0,30.15,NW,311,4.0,13.0,47,0.00,,CLR,0.00,53.00,VWS V14.01,2013-06-05 13:31:00,
2013-06-05 09:41:00,59.3,41.2,30.15,NNW,345,5.0,11.0,51,0.00,,CLR,0.00,107.00,VWS V14.01,2013-06-05 13:41:00,
2013-06-05 09:51:00,59.8,41.1,30.14,WNW,295,5.0,18.0,50,0.00,,CLR,0.00,69.00,VWS V14.01,2013-06-05 13:51:00,
2013-06-05 10:01:00,60.1,40.4,30.14,West,266,5.0,11.0,48,0.00,,CLR,0.00,58.00,VWS V14.01,2013-06-05 14:01:00,
2013-06-05 10:11:00,61.0,40.1,30.14,NW,304,0.0,12.0,46,0.00,,CLR,0.00,69.00,VWS V14.01,2013-06-05 14:11:00,
2013-06-05 10:21:00,61.6,38.9,30.13,WNW,293,10.0,12.0,43,0.00,,CLR,0.00,635.00,VWS V14.01,2013-06-05 14:21:00,
2013-06-05 10:31:00,61.6,39.5,30.13,NW,311,8.0,12.0,44,0.00,,CLR,0.00,86.00,VWS V14.01,2013-06-05 14:31:00,
2013-06-05 10:41:00,62.0,39.3,30.13,West,265,5.0,12.0,43,0.00,,CLR,0.00,86.00,VWS V14.01,2013-06-05 14:41:00,
2013-06-05 10:51:00,63.1,39.0,30.13,WNW,293,12.0,15.0,41,0.00,,CLR,0.00,937.00,VWS V14.01,2013-06-05 14:51:00,
2013-06-05 11:01:00,63.4,37.4,30.12,WSW,247,10.0,13.0,38,0.00,,CLR,0.00,954.00,VWS V14.01,2013-06-05 15:01:00,
2013-06-05 11:11:00,64.2,38.1,30.12,NW,314,2.0,14.0,38,0.00,,CLR,0.00,970.00,VWS V14.01,2013-06-05 15:11:00,
2013-06-05 11:21:00,64.8,36.5,30.12,WNW,297,0.0,16.0,35,0.00,,CLR,0.00,986.00,VWS V14.01,2013-06-05 15:21:00,
2013-06-05 11:31:00,65.3,37.0,30.12,WNW,293,4.0,12.0,35,0.00,,CLR,0.00,998.00,VWS V14.01,2013-06-05 15:31:00,
2013-06-05 11:41:00,65.6,38.7,30.12,West,260,3.0,14.0,37,0.00,,CLR,0.00,1013.00,VWS V14.01,2013-06-05 15:41:00,
2013-06-05 11:51:00,66.3,37.8,30.11,WNW,288,6.0,16.0,35,0.00,,CLR,0.00,1023.00,VWS V14.01,2013-06-05 15:51:00,
2013-06-05 12:01:00,66.1,36.2,30.11,West,278,6.0,11.0,33,0.00,,CLR,0.00,1025.00,VWS V14.01,2013-06-05 16:01:00,
2013-06-05 12:11:00,66.6,35.8,30.11,WSW,258,0.0,13.0,32,0.00,,CLR,0.00,1037.00,VWS V14.01,2013-06-05 16:11:00,
2013-06-05 12:21:00,67.1,37.8,30.11,WNW,300,16.0,16.0,34,0.00,,CLR,0.00,1041.00,VWS V14.01,2013-06-05 16:21:00,
2013-06-05 12:31:00,68.1,38.7,30.11,WNW,298,13.0,17.0,34,0.00,,CLR,0.00,1046.00,VWS V14.01,2013-06-05 16:31:00,
2013-06-05 12:41:00,67.8,39.9,30.11,West,270,13.0,14.0,36,0.00,,CLR,0.00,1046.00,VWS V14.01,2013-06-05 16:41:00,
2013-06-05 12:51:00,68.4,39.0,30.11,West,268,10.0,18.0,34,0.00,,CLR,0.00,1046.00,VWS V14.01,2013-06-05 16:51:00,
2013-06-05 13:01:00,68.4,35.8,30.11,WNW,282,1.0,11.0,30,0.00,,CLR,0.00,1048.00,VWS V14.01,2013-06-05 17:01:00,
2013-06-05 13:11:00,69.1,38.0,30.11,West,270,4.0,17.0,32,0.00,,CLR,0.00,1041.00,VWS V14.01,2013-06-05 17:11:00,
2013-06-05 13:21:00,69.3,35.7,30.11,West,268,5.0,13.0,29,0.00,,CLR,0.00,1035.00,VWS V14.01,2013-06-05 17:21:00,
2013-06-05 13:31:00,70.3,36.6,30.10,West,266,5.0,14.0,29,0.00,,CLR,0.00,1035.00,VWS V14.01,2013-06-05 17:31:00,
2013-06-05 13:41:00,70.1,35.5,30.10,WNW,293,3.0,9.0,28,0.00,,CLR,0.00,1020.00,VWS V14.01,2013-06-05 17:41:00,
2013-06-05 13:51:00,70.1,31.7,30.10,WNW,293,5.0,13.0,24,0.00,,CLR,0.00,1011.00,VWS V14.01,2013-06-05 17:51:00,
2013-06-05 14:01:00,70.6,33.1,30.09,NW,309,2.0,16.0,25,0.00,,CLR,0.00,993.00,VWS V14.01,2013-06-05 18:01:00,
2013-06-05 14:11:00,70.9,31.3,30.09,NNE,24,9.0,12.0,23,0.00,,CLR,0.00,981.00,VWS V14.01,2013-06-05 18:11:00,
2013-06-05 14:21:00,71.6,34.0,30.09,WNW,288,1.0,11.0,25,0.00,,CLR,0.00,965.00,VWS V14.01,2013-06-05 18:21:00,
2013-06-05 14:31:00,71.3,34.7,30.08,West,259,2.0,13.0,26,0.00,,CLR,0.00,953.00,VWS V14.01,2013-06-05 18:31:00,
2013-06-05 14:51:00,71.3,36.5,30.08,ENE,58,5.0,11.0,28,0.00,,CLR,0.00,914.00,VWS V14.01,2013-06-05 18:51:00,
2013-06-05 15:01:00,71.1,35.5,30.07,NE,46,9.0,14.0,27,0.00,,CLR,0.00,779.00,VWS V14.01,2013-06-05 19:01:00,
2013-06-05 15:31:00,72.3,33.5,30.07,NW,316,4.0,11.0,24,0.00,,CLR,0.00,819.00,VWS V14.01,2013-06-05 19:31:00,
2013-06-05 15:41:00,72.3,37.4,30.07,West,281,2.0,10.0,28,0.00,,CLR,0.00,773.00,VWS V14.01,2013-06-05 19:41:00,
2013-06-05 15:51:00,72.0,35.3,30.07,ENE,61,0.0,7.0,26,0.00,,CLR,0.00,729.00,VWS V14.01,2013-06-05 19:51:00,
2013-06-05 16:01:00,73.0,37.1,30.06,WNW,298,4.0,9.0,27,0.00,,CLR,0.00,612.00,VWS V14.01,2013-06-05 20:01:00,
2013-06-05 16:11:00,72.0,34.3,30.06,NNE,32,4.0,13.0,25,0.00,,CLR,0.00,577.00,VWS V14.01,2013-06-05 20:11:00,
2013-06-05 16:21:00,72.5,37.6,30.05,NNE,13,0.0,10.0,28,0.00,,CLR,0.00,575.00,VWS V14.01,2013-06-05 20:21:00,
2013-06-05 16:31:00,72.7,37.8,30.05,NE,49,5.0,9.0,28,0.00,,CLR,0.00,587.00,VWS V14.01,2013-06-05 20:31:00,
2013-06-05 16:41:00,72.5,34.7,30.05,West,280,5.0,11.0,25,0.00,,CLR,0.00,610.00,VWS V14.01,2013-06-05 20:41:00,
2013-06-05 16:51:00,72.8,36.0,30.05,WNW,290,0.0,10.0,26,0.00,,CLR,0.00,570.00,VWS V14.01,2013-06-05 20:51:00,
2013-06-05 17:01:00,72.8,37.8,30.05,North,6,3.0,8.0,28,0.00,,CLR,0.00,577.00,VWS V14.01,2013-06-05 21:01:00,
2013-06-05 17:11:00,72.3,37.4,30.05,NE,42,0.0,11.0,28,0.00,,CLR,0.00,548.00,VWS V14.01,2013-06-05 21:11:00,
2013-06-05 17:21:00,71.3,37.4,30.05,ENE,57,6.0,10.0,29,0.00,,CLR,0.00,371.00,VWS V14.01,2013-06-05 21:21:00,
2013-06-05 17:31:00,71.8,35.1,30.04,North,351,0.0,8.0,26,0.00,,CLR,0.00,355.00,VWS V14.01,2013-06-05 21:31:00,
2013-06-05 17:41:00,70.6,35.9,30.04,NNE,20,0.0,5.0,28,0.00,,CLR,0.00,165.00,VWS V14.01,2013-06-05 21:41:00,
2013-06-05 18:01:00,69.9,37.9,30.05,WNW,289,0.0,4.0,31,0.00,,CLR,0.00,114.00,VWS V14.01,2013-06-05 22:01:00,
2013-06-05 18:11:00,70.3,37.4,30.05,WNW,289,0.0,1.0,30,0.00,,CLR,0.00,343.00,VWS V14.01,2013-06-05 22:11:00,
2013-06-05 18:21:00,70.6,37.7,30.05,NNW,346,0.0,6.0,30,0.00,,CLR,0.00,311.00,VWS V14.01,2013-06-05 22:21:00,
2013-06-05 18:31:00,70.8,37.0,30.05,NW,319,0.0,8.0,29,0.00,,CLR,0.00,232.00,VWS V14.01,2013-06-05 22:31:00,
2013-06-05 18:41:00,69.9,35.3,30.05,NW,317,3.0,7.0,28,0.00,,CLR,0.00,113.00,VWS V14.01,2013-06-05 22:41:00,
2013-06-05 18:51:00,69.1,36.4,30.06,WNW,302,3.0,6.0,30,0.00,,CLR,0.00,72.00,VWS V14.01,2013-06-05 22:51:00,
2013-06-05 19:01:00,68.9,33.6,30.07,NW,304,2.0,6.0,27,0.00,,CLR,0.00,84.00,VWS V14.01,2013-06-05 23:01:00,
2013-06-05 19:11:00,68.6,34.2,30.07,West,279,0.0,5.0,28,0.00,,CLR,0.00,60.00,VWS V14.01,2013-06-05 23:11:00,
2013-06-05 19:21:00,68.1,34.7,30.07,NW,304,0.0,5.0,29,0.00,,CLR,0.00,42.00,VWS V14.01,2013-06-05 23:21:00,
2013-06-05 19:31:00,67.9,35.3,30.07,West,269,4.0,4.0,30,0.00,,CLR,0.00,47.00,VWS V14.01,2013-06-05 23:31:00,
2013-06-05 19:41:00,67.4,34.1,30.07,WSW,257,0.0,4.0,29,0.00,,CLR,0.00,32.00,VWS V14.01,2013-06-05 23:41:00,
2013-06-05 19:51:00,66.4,36.5,30.07,WSW,257,1.0,4.0,33,0.00,,CLR,0.00,16.00,VWS V14.01,2013-06-05 23:51:00,
2013-06-05 20:01:00,65.8,38.8,30.07,WSW,257,0.0,3.0,37,0.00,,CLR,0.00,16.00,VWS V14.01,2013-06-06 00:01:00,
2013-06-05 20:11:00,65.5,38.6,30.07,West,273,0.0,4.0,37,0.00,,CLR,0.00,7.00,VWS V14.01,2013-06-06 00:11:00,
2013-06-05 20:21:00,63.2,44.3,30.06,West,274,2.0,4.0,50,0.00,,CLR,0.00,0.00,VWS V14.01,2013-06-06 00:21:00,
2013-06-05 20:31:00,60.1,43.9,30.07,West,274,3.0,4.0,55,0.00,,CLR,0.00,0.00,VWS V14.01,2013-06-06 00:31:00,
2013-06-05 20:41:00,59.2,42.6,30.07,West,274,0.0,4.0,54,0.00,,CLR,0.00,0.00,VWS V14.01,2013-06-06 00:41:00,
2013-06-05 20:51:00,58.6,42.0,30.08,West,274,0.0,0.0,54,0.00,,CLR,0.00,0.00,VWS V14.01,2013-06-06 00:51:00,
2013-06-05 21:01:00,58.0,42.4,30.08,West,274,0.0,0.0,56,0.00,,CLR,0.00,0.00,VWS V14.01,2013-06-06 01:01:00,
2013-06-05 21:11:00,57.3,41.8,30.08,West,274,0.0,0.0,56,0.00,,CLR,0.00,0.00,VWS V14.01,2013-06-06 01:11:00,
2013-06-05 21:31:00,57.6,43.8,30.10,West,274,0.0,3.0,60,0.00,,CLR,0.00,0.00,VWS V14.01,2013-06-06 01:31:00,
2013-06-05 21:51:00,57.5,44.2,30.10,West,274,0.0,0.0,61,0.00,,CLR,0.00,0.00,VWS V14.01,2013-06-06 01:51:00,
2013-06-05 22:01:00,57.3,44.8,30.11,West,274,0.0,0.0,63,0.00,,CLR,0.00,0.00,VWS V14.01,2013-06-06 02:01:00,
2013-06-05 22:11:00,57.3,43.5,30.11,West,274,0.0,0.0,60,0.00,,OVC120,0.00,0.00,VWS V14.01,2013-06-06 02:11:00,
2013-06-05 22:21:00,57.3,43.5,30.10,West,274,0.0,0.0,60,0.00,,OVC120,0.00,0.00,VWS V14.01,2013-06-06 02:21:00,
2013-06-05 22:31:00,57.2,43.9,30.11,West,274,0.0,0.0,61,0.00,,OVC120,0.00,0.00,VWS V14.01,2013-06-06 02:31:00,
2013-06-05 22:41:00,57.2,42.6,30.11,West,274,3.0,4.0,58,0.00,,OVC120,0.00,0.00,VWS V14.01,2013-06-06 02:41:00,
2013-06-05 22:51:00,56.9,44.5,30.11,West,274,0.0,4.0,63,0.00,,OVC120,0.00,0.00,VWS V14.01,2013-06-06 02:51:00,
2013-06-05 23:11:00,56.9,45.3,30.11,West,274,0.0,0.0,65,0.00,,CLR,0.00,0.00,VWS V14.01,2013-06-06 03:11:00,
2013-06-05 23:21:00,57.0,45.4,30.11,West,274,0.0,0.0,65,0.00,,CLR,0.00,0.00,VWS V14.01,2013-06-06 03:21:00,
2013-06-05 23:31:00,56.9,42.7,30.12,West,274,0.0,0.0,59,0.00,,CLR,0.00,0.00,VWS V14.01,2013-06-06 03:31:00,
2013-06-05 23:41:00,56.5,44.5,30.12,West,274,0.0,0.0,64,0.00,,CLR,0.00,0.00,VWS V14.01,2013-06-06 03:41:00,
2013-06-05 23:51:00,56.3,44.3,30.12,West,274,0.0,0.0,64,0.00,,CLR,0.00,0.00,VWS V14.01,2013-06-06 03:51:00,